Fort Worth, TX

1:45 AM CST on February 06, 2016 (GMT -0600)
Fort Worth Alliance

Weather History for KAFW - August, 2013

Change the Weather History Date:

Thursday, August 22, 2013

  Actual Average Record
Temperature  
Mean Temperature 86 °F -  
Max Temperature 99 °F 92 °F 107 °F (2010)
Min Temperature 75 °F 71 °F 63 °F (2012)
Cooling Degree Days 22    
Growing Degree Days 36 (Base 50)    
Moisture  
Dew Point 65 °F    
Average Humidity 51    
Maximum Humidity 76    
Minimum Humidity 31    
Precipitation  
Precipitation 0.00 in - - ()
Sea Level Pressure  
Sea Level Pressure 29.97 in    
Wind  
Wind Speed 4 mph (SSE)    
Max Wind Speed 12 mph    
Max Gust Speed 18 mph    
Visibility 10 miles    
Events      
Averages and records for this station are not official NWS values.
T = Trace of Precipitation, MM = Missing Value Source: NWS Daily Summary

Daily Weather History Graph

Daily Weather History Graph

Search for Another Location

Airport or City:

Trip Planner

Search our weather history database for the weather conditions in past years. The results will help you decide how hot, cold, wet, or windy it might be!

Date:

Astronomy

Aug. 22, 2013 Rise Set
Actual Time 6:57 AM CDT 8:06 PM CDT
Civil Twilight 6:31 AM CDT 8:31 PM CDT
Nautical Twilight 6:01 AM CDT 9:02 PM CDT
Astronomical Twilight 5:29 AM CDT 9:33 PM CDT
Moon 9:01 PM CDT (8/22) 8:38 AM CDT (8/22)
Length of Visible Light 14h 00m
Length of Day
13h 08m
Waning Gibbous, 96% of the Moon is Illuminated
Aug 22
Waning Gibbous
Aug 28
Last Quarter
Sep 5
New
Sep 12
First Quarter
Sep 19
Full

Hourly Weather History & Observations

Time (CDT) Temp. Heat Index Dew Point Humidity Pressure Visibility Wind Dir Wind Speed Gust Speed Precip Events Conditions
12:53 AM 79.0 °F - 64.0 °F 60% 29.99 in 10.0 mi South 3.5 mph - N/A   Partly Cloudy
1:53 AM 77.0 °F - 64.0 °F 64% 29.98 in 10.0 mi South 3.5 mph - N/A   Partly Cloudy
2:53 AM 75.9 °F - 64.9 °F 69% 29.97 in 10.0 mi South 4.6 mph - N/A   Partly Cloudy
3:53 AM 77.0 °F - 64.9 °F 66% 29.98 in 10.0 mi Calm Calm - N/A   Clear
4:53 AM 75.9 °F - 64.9 °F 69% 29.99 in 10.0 mi Calm Calm - N/A   Clear
5:53 AM 75.9 °F - 66.0 °F 71% 30.00 in 10.0 mi Calm Calm - N/A   Mostly Cloudy
6:53 AM 75.0 °F - 66.9 °F 76% 30.01 in 10.0 mi Calm Calm - N/A   Mostly Cloudy
7:53 AM 77.0 °F - 66.9 °F 71% 30.04 in 10.0 mi South 3.5 mph - N/A   Partly Cloudy
8:53 AM 82.9 °F 85.8 °F 68.0 °F 60% 30.05 in 10.0 mi Variable 3.5 mph - N/A   Partly Cloudy
9:53 AM 86.0 °F 89.4 °F 68.0 °F 55% 30.04 in 10.0 mi South 6.9 mph - N/A   Partly Cloudy
10:53 AM 90.0 °F 92.4 °F 66.0 °F 45% 30.04 in 10.0 mi Variable 4.6 mph - N/A   Partly Cloudy
11:53 AM 93.9 °F 96.1 °F 64.9 °F 38% 30.02 in 10.0 mi SW 9.2 mph - N/A   Partly Cloudy
12:53 PM 95.0 °F 97.4 °F 64.9 °F 37% 30.00 in 10.0 mi SSE 11.5 mph 18.4 mph N/A   Partly Cloudy
1:53 PM 93.0 °F 95.0 °F 64.9 °F 39% 29.98 in 10.0 mi South 6.9 mph - N/A   Mostly Cloudy
2:53 PM 98.1 °F 100.7 °F 64.0 °F 33% 29.96 in 10.0 mi SE 10.4 mph 17.3 mph N/A   Scattered Clouds
3:53 PM 97.0 °F 98.3 °F 63.0 °F 32% 29.93 in 10.0 mi SSE 8.1 mph 16.1 mph N/A   Scattered Clouds
4:53 PM 97.0 °F 98.3 °F 63.0 °F 32% 29.91 in 10.0 mi Variable 5.8 mph - N/A   Scattered Clouds
5:53 PM 97.0 °F 97.8 °F 62.1 °F 31% 29.89 in 10.0 mi SE 5.8 mph - N/A   Partly Cloudy
6:53 PM 95.0 °F 95.6 °F 62.1 °F 33% 29.88 in 10.0 mi SE 6.9 mph - N/A   Partly Cloudy
7:53 PM 91.0 °F 91.5 °F 62.1 °F 38% 29.89 in 10.0 mi ESE 4.6 mph - N/A   Partly Cloudy
8:53 PM 87.1 °F 88.3 °F 64.0 °F 46% 29.91 in 10.0 mi ESE 4.6 mph - N/A   Clear
9:53 PM 87.1 °F 88.9 °F 64.9 °F 48% 29.93 in 10.0 mi SE 5.8 mph - N/A   Clear
10:53 PM 87.1 °F 89.2 °F 66.0 °F 49% 29.94 in 10.0 mi SSE 5.8 mph - N/A   Partly Cloudy
11:53 PM 84.9 °F 87.1 °F 66.0 °F 53% 29.94 in 10.0 mi SSE 6.9 mph - N/A   Partly Cloudy